Flag for Canada Weather past 2 weeks in Coral Harbour, Nunavut, Canada

Now
37 °F

Partly cloudy.


Feels Like: 31 °F
Forecast: 30 / 43 °F
Wind: 8 mph from North

Location: Coral Harbour

Current Time: Sep 3, 2015 at 2:50:39 AM

Latest Report: Sep 3, 2015 at 2:00 AM


Visibility: 15 mi

Pressure: 30.01 "Hg

Humidity: 93%

Dew point: 36 °F

Location of Coral HarbourLocation

Historic Weather in Coral Harbour — Graph

°F

Coral Harbour temperature yesterday

Maximum temperature yesterday: 50 °F (at 6:00 PM)
Minimum temperature yesterday: 37 °F (at 12:00 AM)
Average temperature yesterday: 42 °F

Past Weeks' High & Low Weather Summary

 TemperatureHumidityPressure
High54 °F (Aug 19, 2:00 PM)100% (Aug 31, 1:00 AM)30.12 "Hg (Aug 31, 1:00 AM)
Low28 °F (Aug 31, 5:00 AM)50% (Sep 1, 3:00 PM)29.56 "Hg (Aug 27, 2:00 PM)
Average41 °F80%29.93 "Hg
* Reported Aug 19 1:00 AM — Sep 3 1:00 AM, Coral Harbour, Weather by CustomWeather, © 2015

Note: Actual official high and low records may vary slightly from our data, if they occured in-between our weather recording intervals... More about our weather records

Advertising

Coral Harbour weather history for previous 24 hours

 ConditionsComfort  
Time TempWeatherWind HumidityBarometerVisibility
1:00 AM
Thu, Sep 3
37 °FPartly cloudy.6 mph93%30.01 "Hg15 mi
12:00 AM37 °FPassing clouds.6 mph93%30.00 "Hg15 mi
11:00 PM
Wed, Sep 2
37 °FPassing clouds.5 mph93%30.01 "Hg15 mi
10:00 PM37 °FPassing clouds.No wind93%30.00 "Hg15 mi
9:00 PM39 °FPassing clouds.3 mph87%30.00 "Hg15 mi
8:00 PM43 °FPassing clouds.6 mph81%29.99 "Hg15 mi
7:00 PM46 °FScattered clouds.9 mph71%29.99 "Hg15 mi
6:00 PM50 °FScattered clouds.6 mph62%29.99 "Hg15 mi
5:00 PM48 °FPassing clouds.10 mph66%29.99 "Hg15 mi
4:00 PM46 °FScattered clouds.12 mph66%30.00 "Hg15 mi
3:00 PM48 °FScattered clouds.13 mph62%29.99 "Hg15 mi
2:00 PM48 °FScattered clouds.12 mph62%30.00 "Hg15 mi
1:00 PM48 °FPassing clouds.5 mph62%29.99 "Hg15 mi
12:00 PM46 °FPartly sunny.2 mph62%29.98 "Hg15 mi
11:00 AM46 °FOvercast.No wind62%29.99 "Hg15 mi
10:00 AM45 °FPartly sunny.5 mph66%29.99 "Hg15 mi
9:00 AM43 °FPartly sunny.7 mph71%30.00 "Hg15 mi
8:00 AM41 °FPartly sunny.7 mph81%29.99 "Hg15 mi
7:00 AM39 °FPartly sunny.9 mph81%29.99 "Hg15 mi
6:00 AM37 °FPassing clouds.9 mph87%30.00 "Hg15 mi
5:00 AM37 °FPassing clouds.9 mph87%29.98 "Hg15 mi
4:00 AM37 °FPassing clouds.7 mph87%29.98 "Hg15 mi
3:00 AM39 °FOvercast.5 mph81%29.98 "Hg15 mi
2:00 AM39 °FPassing clouds.5 mph81%29.98 "Hg15 mi
Weather by CustomWeather, © 2015

See weather overviewHow to use our weather pages